Regional Weather Roundup
Issued by NWS

Home | Current Version | Previous Version | Text Only | Print | Product List | Glossary Off
Versions: 1 2 3 4 5 6 7 8 9 10 11 12 13 14 15 16 17 18 19 20 21 22 23 24 25 26 27 28 29 30 31 32 33 34 35 36 37 38 39 40 41 42 43 44 45 46 47 48 49 50

000
ASUS43 KMKX 270900
RWRWI

WISCONSIN REGIONAL WEATHER ROUNDUP
NATIONAL WEATHER SERVICE MILWAUKEE/SULLIVAN WI
400 AM CDT FRI MAY 27 2016

NOTE: "FAIR" INDICATES FEW OR NO CLOUDS BELOW 12,000 FEET WITH NO
SIGNIFICANT WEATHER AND/OR OBSTRUCTIONS TO VISIBILITY.

WIZ001-002-006>008-014>016-023>028-271000-
NORTHWEST WISCONSIN

CITY           SKY/WX    TMP DP  RH WIND       PRES   REMARKS
SUPERIOR ARPT  FOG       46  46 100 CALM      29.85F VSB 1/4
ASHLAND        CLOUDY    45  45 100 CALM      29.86F FOG
HAYWARD        PTCLDY    48  46  93 N6        29.85F FOG
SIREN          CLOUDY    56  54  93 CALM      29.85F
CUMBERLAND     PTCLDY    55  54  94 NE3       29.86F
RICE LAKE      PTCLDY    57  55  93 CALM      29.87F
CHETEK         MOCLDY    56  55  99 SE3       29.87S
LADYSMITH      CLOUDY    54  53  96 CALM      29.89F
EAU CLAIRE     NOT AVBL
MENOMONIE      MOCLDY    61  56  84 CALM      29.85F
NEW RICHMOND   CLOUDY    62  53  72 SE5       29.85F
OSCEOLA        MOCLDY    61  61  99 CALM      29.87S
$$

WIZ003>005-009-010-017-018-271000-
NORTH CENTRAL WISCONSIN

CITY           SKY/WX    TMP DP  RH WIND       PRES   REMARKS
MANITOWISH WTR NOT AVBL
ARBOR VITAE      N/A     55  53  95 CALM      29.89S FOG
WOODRUFF         N/A     55  53  95 CALM      29.89S FOG
RHINELANDER    FOG       52  51  97 CALM      29.90S VSB 1/4
EAGLE RIVER    FOG       53  53 100 CALM      29.90R VSB 1/2
LAND O LAKES     N/A     52  52 100 CALM      29.91R FOG
PHILLIPS       CLOUDY    53  53 100 CALM      29.88S
TOMAHAWK       CLOUDY    50  49  97 CALM      29.90S
MEDFORD        CLEAR     56  56 100 CALM      29.88F
MERRILL        FOG       51  51 100 CALM      29.90S VSB 1/2
$$

WIZ029-030-035-036-043>047-271000-
CENTRAL WISCONSIN

CITY           SKY/WX    TMP DP  RH WIND       PRES   REMARKS
WAUSAU         CLOUDY    59  56  89 CALM      29.87F
MOSINEE        MOCLDY    54  54 100 CALM      29.90F
MARSHFIELD     CLOUDY    59  56  89 CALM      29.87F
STEVENS POINT  CLOUDY    54  53  98 CALM      29.89S
WAUPACA        CLOUDY    60  60  99 CALM      29.88S
WAUTOMA        PTCLDY    58  57  97 E3        29.88
WISC RAPIDS    PTCLDY    58  56  93 CALM      29.89S
CAMP DOUGLAS   NOT AVBL
$$

WIZ011>013-019>022-031-037>040-048>050-271000-
NORTHEAST WISCONSIN

CITY           SKY/WX    TMP DP  RH WIND       PRES   REMARKS
ANTIGO         CLEAR     53  53 100 CALM      29.91S
SHAWANO        PTCLDY    60  58  94 CALM      29.89S FOG
OCONTO           N/A    N/A N/A N/A CALM      29.88R
STURGEON BAY   NOT AVBL
GREEN BAY      CLOUDY    60  57  89 CALM      29.88R
MANITOWOC      NOT AVBL
APPLETON       CLOUDY    64  54  68 CALM      29.87S
CLINTONVILLE   MOCLDY    57  55  94 CALM      29.88S
OSHKOSH        MOCLDY    61  57  87 CALM      29.88R
$$

WIZ032>034-041-042-053>061-271000-
SOUTHWEST WISCONSIN

CITY           SKY/WX    TMP DP  RH WIND       PRES   REMARKS
LA CROSSE      CLOUDY    65  62  90 NE6       29.82F
SPARTA         CLOUDY    58  58  99 CALM      29.87S
VIROQUA        CLOUDY    65  60  84 E5        29.88R
BOSCOBEL       CLOUDY    65  63  93 NE3       29.86F
PRAIRIE DU CHI CLOUDY    66  61  86 CALM      29.85F
PLATTEVILLE    CLOUDY    67  59  76 NE6       29.86F
$$

WIZ056-057-062-063-064-067-068-271000-
SOUTH CENTRAL WISCONSIN

CITY           SKY/WX    TMP DP  RH WIND       PRES   REMARKS
REEDSBURG      PTCLDY    60  60 100 CALM      29.88R
BARABOO/DELLS  PTCLDY    61  58  91 CALM      29.88S
LONE ROCK      NOT AVBL
MINERAL POINT  MOCLDY    68  59  73 CALM      29.88R
MADISON        PTCLDY    61  58  90 CALM      29.88R
MIDDLETON      PTCLDY    62  58  87 CALM      29.88S
WATERTOWN      CLOUDY    61  61 100 CALM      29.87R
MONROE         CLOUDY    68  55  64 NE3       29.86F
JANESVILLE     CLOUDY    64  63  94 CALM      29.87R
$$

WIZ051-052-058>065-066-070>072-271000-
SOUTHEAST WISCONSIN

CITY           SKY/WX    TMP DP  RH WIND       PRES   REMARKS
MILWAUKEE      MOCLDY    68  61  78 CALM      29.88S
WAUKESHA       PTCLDY    61  57  88 CALM      29.90R
MILWAUKEE/TIMM PTCLDY    63  55  77 CALM      29.88F
RACINE         CLOUDY    65  59  81 SW3       29.90S
BURLINGTON     MOCLDY    60  60  97 CALM      29.89R
KENOSHA        CLOUDY    68  64  87 SW3       29.89R
FOND DU LAC    CLOUDY    60  58  92 CALM      29.88R
SHEBOYGAN      CLOUDY    59  57  93 CALM      29.88S
WEST BEND        N/A     59  59 100 CALM      29.88S FOG
JUNEAU         CLOUDY    63  61  93 CALM      29.89R
$$

LSZ147-162-271000-
LAKE SUPERIOR

STATION/POSITION TIME  TEMP    WIND        PRES    WAVE
                       AIR SEA DIR/SP/G            HT/PER
                 (UTC) (F)     (DEG/KT/KT) (MB)    (FT/S)
W MID LAKE BUOY  0750   39 38  310/  2/  4 1012.5R   1
DEVILS ISLAND    0800   44     260/  5/  5 1012.2R
SAXON HARBOR     0800   48      70/  2/  3 1011.2S
$$

LMZ867-665-643>646-271000-
LAKE MICHIGAN

STATION/POSITION TIME  TEMP    WIND        PRES    WAVE
                       AIR SEA DIR/SP/G            HT/PER
                 (UTC) (F)     (DEG/KT/KT) (MB)    (FT/S)
CHAMBERS ISLAND  0800   55        CALM     1011.9R
N MID LAKE BUOY  0750   49 45  160/  8/ 10 1011.8S   1/ 4
NORTHPORT PIER   0800   51     140/  5/  8 1011.9S
SISTER BAY       0805   53        CALM       N/A
ALGOMA LAKESHORE 0817           70/  7/  7   N/A
KEWAUNEE LAKESHO 0800           CALM  /  1 1011.1R
SHEBOYGAN LAKESH 0800   58     190/  6/  6 1012.0R
PORT WASHINGTON  0800   57      70/  3/  5 1012.5R
S MID LAKE BUOY  0750   55 50  170/ 10/ 12 1011.9R   1
KENOSHA   LAKESH 0800   66     180/  3/  5 1011.5R
$$

TC  - TEMPERATURE IN CELSIUS
VSB - VISIBILITY IN STATUTE MILES
WCI - WIND CHILL INDEX
HX  - HEAT INDEX




USA.gov is the U.S. government's official web portal to all federal, state and local government web resources and services.